CZ-6A DEB, 56642

Orbit data source: Space-Track

CZ-6A DEB, 56642 is space debris in SSO originally from a launch on Fri, 11 Nov 2022 UTC launched from the Taiyaun Space Center, China (TSC). Debris objects in space refer to the collection of defunct objects orbiting the Earth. Examples of debris include non-operational satellites, rocket bodies, and fragments generated from explosions, collisions, or faulty payload assembly.

Loading next visibility...
Identifier
56642, 2022-151AFS
Orbit
SSO
Country
Flag of CNCN / PRC
Related business
Manufacturer
SAST
Mission
Spacecraft
Bus & Motor
Unknown
Mass
Unknown
Launch date (UTC)
2022-11-11 (3 years ago)
Launch vehicle
Unknown
Launch site
Taiyaun Space Center, China (TSC)
Object type
Payload
Rocket body
Debris
Shape & HBR
Unknown shape, 0.1 m
Radar Cross Section
Small (<0.1 m²)

Expand to show TLE details & history
Last TLE update: 2 days ago

TLE from 2 days ago
0 CZ-6A DEB
1 56642U 22151AFS 25348.62770536  .00000591  00000-0  45536-3 0  9993
2 56642  98.8921 317.3088 0126685 232.4031 126.5574 13.93168532134228
Epoch: 2025-12-14T15:03Z
TLE epoch observation values (Epoch: 2025-12-14T15:03:53.743Z)
Latitude
0.00002°
Longitude
7.79697°
Altitude
976.229 km
Speed
7.335 km/s
True Right ascension
21h 09m 14s
True Declination
0° 00' 00"
Sunlit
Object was in daylight at epoch
Visualization orbit readout
Latitude
Unknown
Longitude
Unknown
Altitude
Unknown
Speed
Unknown
Apparent Right ascension
Unknown
Apparent Declination
Unknown
Sunlit
N/A
Visualization observer readout
Local Sidereal Time
13:41:28
Azimuth
Unknown
Elevation
Unknown
Doppler factor
Unknown
Orbital elements
Apogee altitude
1,007.141 km
Perigee altitude
822.361 km
Semi-major axis
7,292.888 km
Eccentricity
0.01267
Inclination
98.8921°
RAAN
317.3088°
Arg. of periapsis
232.4031°
True anomaly
127.71252°
Mean anomaly
126.5574°
Eccentric anomaly
127.13605°
Mean motion
3.48493 °/min
Orbital period
103.3 mins
BSTAR
0.00045536
Loading maneuver chart data...
Computing Atmospheric mass density...
Loading historical data...
Loading historical data...
Loading historical data...
Loading historical data...
Loading historical data...
Loading historical data...
Loading historical data...

Documentation

Showing up to 5 results
|